Regional Weather Roundup
Issued by NWS Jackson, KY

Home | Current Version | Previous Version | Text Only | Print | Product List | Glossary On
Versions: 1 2 3 4 5 6 7 8 9 10 11 12 13 14 15 16 17 18 19 20 21 22 23 24 25 26 27 28 29 30 31 32 33 34 35 36 37 38 39 40 41 42 43 44 45 46 47 48 49 50
000
ASUS43 KJKL 230610
RWRJKL

EAST KENTUCKY HOURLY WEATHER ROUNDUP
NATIONAL WEATHER SERVICE JACKSON KY
200 AM EDT MON OCT 23 2017

NOTE: "FAIR" INDICATES FEW OR NO CLOUDS BELOW 12,000 FEET WITH
NO SIGNIFICANT WEATHER AND/OR OBSTRUCTIONS TO VISIBILITY.

* THESE REPORTS ARE NOT UNDER NWS QUALITY CONTROL AND MAY NOT
  REPORT WEATHER SUCH AS PRECIPITATION AND FOG.

KYZ079-080-083-085-087-088-110-112-115-119-120-230700
...EASTERN KENTUCKY...

CITY           SKY/WX    TMP DP  RH WIND       PRES   REMARKS
JACKSON        CLOUDY    68  52  56 SE6       30.06F
6HR MIN TEMP:  66; 6HR MAX TEMP:  70;

LONDON         CLOUDY    67  55  65 SE5       30.04F
6HR MIN TEMP:  63; 6HR MAX TEMP:  67;

SOMERSET*      CLOUDY    64  54  68 S6        30.03F
MONTICELLO*    CLOUDY    67  57  70 E8        30.02F
6HR MIN TEMP:  66; 6HR MAX TEMP:  70;

WILLIAMSBURG*  CLOUDY    66  57  72 S5        30.04F
MIDDLESBORO*   MOCLDY    69  57  67 CALM      30.07F
6HR MIN TEMP:  59; 6HR MAX TEMP:  69;

HARLAN APT*    CLOUDY    68  54  60 CALM      30.07F
PIKE CO APT*     N/A     66  54  64 SE9       30.09F
BIG SANDY APT* CLOUDY    67  54  61 SE7       30.08F
6HR MIN TEMP:  64; 6HR MAX TEMP:  69;

MOREHEAD APT*  PTCLDY    66  52  59 VRB7G14   30.05F
$$

KYZ035-036-041-042-044-050-067-078-099-230700
...CENTRAL KENTUCKY...

CITY           SKY/WX    TMP DP  RH WIND       PRES   REMARKS
MT STERLING*   CLOUDY    66  54  63 S10       30.04F
FLEMING/MASON* CLOUDY    65  53  65 SE10      30.03F
DANVILLE*      CLOUDY    64  54  68 S3        30.02S
LEXINGTON      MOCLDY    67  53  61 SE12      30.00F
6HR MIN TEMP:  66; 6HR MAX TEMP:  70;

FRANKFORT      CLOUDY    67  52  58 SE9       29.97F
6HR MIN TEMP:  66; 6HR MAX TEMP:  69;

LOUISVILLE     CLOUDY    69  57  65 SE9       29.94F
6HR MIN TEMP:  69; 6HR MAX TEMP:  73;

LEBANON*         N/A     68  54  60 SE14      29.98F
GLASGOW*       CLOUDY    70  58  66 SE8       29.94F
BOWLING GREEN  LGT RAIN  71  63  75 SE12      29.91F
6HR MIN TEMP:  67; 6HR MAX TEMP:  73; 6HR PCP:  0.01;

$$

KYZ091>093-OHZ055-061-077-WVZ005-015-034-035-042-230700
...SOUTHERN OHIO/WEST VIRGINIA...

CITY           SKY/WX    TMP DP  RH WIND       PRES   REMARKS
COVINGTON      CLOUDY    66  52  60 SE10      29.98F
COLUMBUS       CLOUDY    65  51  60 SE12      30.05S
DAYTON         CLOUDY    65  51  60 SE12      30.02S
WILMINGTON     CLOUDY    64  52  64 SE8       30.02F
HUNTINGTON     MOCLDY    64  51  62 SE6       30.07F
CHARLESTON     CLOUDY    67  50  54 CALM      30.11S
PINEVILLE*     CLOUDY    58  53  83 MISG      30.20F
BECKLEY        CLOUDY    62  51  67 SE13G24   30.19F
BLUEFIELD      CLOUDY    61  51  70 S10G23    30.20F
LOGAN CO APT*    N/A     68  52  56 VRB3G14   30.12F
$$

VAZ002-007-008-TNZ017-027-036-066-071-230700
...SOUTHWEST VIRGINIA/EAST TENNESSEE...

CITY           SKY/WX    TMP DP  RH WIND       PRES   REMARKS
WISE*          CLOUDY    63  54  72 S12       30.15F
JONESVILLE*      N/A     66  55  68 E8        30.12F
ABINGDON*      CLOUDY    68  57  68 SE8       30.17F
BRISTOL        CLOUDY    67  58  72 E5        30.13F
MORRISTOWN*    CLEAR     68  59  73 E7        30.06F
SEVIERVILLE*   CLEAR     63  55  77 CALM      30.04F
KNOXVILLE      CLOUDY    72  59  63 S10G20    30.03F
LAFOLLETTE*    CLEAR     61  57  88 CALM      30.08F
CROSSVILLE     CLOUDY    66  58  75 S9G17     30.04F
NASHVILLE      LGT RAIN  71  63  75 S16       29.91F
$$

...KEY TO REMARKS...
VSB - VISIBILITY IN MILES
WCI - WIND CHILL INDEX
HX  - HEAT INDEX

$$



USA.gov is the U.S. government's official web portal to all federal, state and local government web resources and services.